Location: Newark
(49.8348°N, 24.0280°E)
Time: 04:54:56
(UTC+00:00)

Transit 2A - Pass Details

Date: 27 January 2020
Orbit: 600 x 959 km, 66.7° (Epoch: 16 February)

Event Time Altitude Azimuth Distance (km) Brightness Sun altitude
Rises 03:42:25 0° 312° (NW) 3,003 - -22.7°
Reaches altitude 10° 03:45:07 10° 296° (WNW) 2,139 - -22.3°
Maximum altitude 03:48:41 21° 249° (WSW) 1,602 - -21.7°
Exits shadow 03:51:56 12° 206° (SSW) 2,137 8.1 -21.2°
Drops below altitude 10° 03:52:29 10° 202° (SSW) 2,294 8.3 -21.1°
Sets 03:55:31 0° 187° (S) 3,289 9.3 -20.6°
